Location: ???? ??????
(31.1627°N, 45.8027°E)
Time: 18:03:43
(UTC+00:00)

Daily predictions for brighter satellites

Satellite Brightness Start Highest point End
(mag) Time Altitude Azimuth Time Altitude Azimuth Time Altitude Azimuth
Cosmos 676 Rocket 4.1 16:18:29 10° N 16:23:45 67° ENE 16:29:01 10° SSE
Sakura Rocket 3.7 16:19:42 10° W 16:24:33 68° S 16:31:22 10° E
USA 267 3.4 16:18:20 10° SE 16:24:52 75° NE 16:31:25 10° NW
SJ-6B 3.7 16:22:07 10° SE 16:25:23 30° ENE 16:28:40 10° NNE
Cosmos 1356 3.9 16:22:34 10° NNW 16:25:58 63° W 16:29:22 10° S
ARGOS 3.3 16:21:08 10° SSE 16:26:23 58° ENE 16:31:39 10° N
STARLINK-1072 4.3 16:23:16 10° NNW 16:27:14 44° NE 16:31:11 10° ESE
NOSS 2-2 (C) 3.0 16:24:21 10° SSW 16:28:00 86° ESE 16:31:36 10° NNE
BREEZE-M DEB (TANK) 2.9 16:27:03 10° NW 16:29:17 43° NE 16:31:52 10° ESE
Cosmos 1544 3.0 16:26:18 10° N 16:29:53 73° E 16:33:26 10° S
STARLINK-1096 4.1 16:28:09 10° NNW 16:32:10 49° NE 16:36:11 10° ESE
CZ-2C R/B 3.1 16:27:19 10° NNE 16:32:40 44° E 16:37:56 10° S
H-2A R/B 2.1 16:28:00 10° SSE 16:33:03 87° ENE 16:38:18 10° NNW
ATLAS 2AS CENTAUR R/B 4.0 16:27:29 10° SSE 16:33:11 23° ESE 16:39:01 10° ENE
Cosmos 1943 Rocket 3.1 16:28:56 10° SSE 16:33:30 27° ESE 16:38:06 10° NE
STARLINK-1079 3.9 16:33:08 10° NW 16:37:13 55° NE 16:41:03 11° ESE
FALCON 9 DEB 3.6 16:34:49 10° SSW 16:37:59 37° SE 16:41:11 10° ENE
CZ-4 R/B 4.4 16:38:03 10° SW 16:40:23 15° W 16:42:44 10° WNW
IUS-1 SRM-2 2.9 16:38:12 10° WSW 16:40:33 21° SSW 16:41:53 13° SE
Abrixas rocket 4.5 16:39:05 10° N 16:40:42 14° NNE 16:42:18 10° ENE
STARLINK-1116 3.8 16:38:05 10° NW 16:42:11 62° NE 16:45:49 13° SE
Cosmos 332 Rocket 4.4 16:37:27 10° SSW 16:42:17 63° WNW 16:47:09 10° N
SL-4 R/B 2.2 16:41:10 10° NW 16:43:48 38° WSW 16:46:12 10° S
GPS 2-04 Rocket1 2.6 16:41:28 10° WNW 16:44:51 61° NNE 16:48:04 11° E
Cosmos 1782 Rocket 4.2 16:40:44 10° NNW 16:45:08 60° W 16:49:29 10° S
FREGAT/IRIS 2.5 16:48:17 10° S 16:50:55 70° W 16:53:33 10° NNW
STARLINK-1094 3.6 16:47:59 10° NW 16:52:08 79° NE 16:55:22 16° SE
Cosmos 1833 Rocket 2.9 16:47:23 10° NNW 16:52:58 73° WSW 16:58:34 10° SSE
SL-08 RB Rocket 3.7 16:51:11 10° SSE 16:55:46 85° ENE 17:00:18 10° N
ATLAS 3B CENTAUR R/B 4.5 16:33:44 10° WSW 16:56:40 78° S 17:06:44 10° E
STARLINK-1117 3.6 16:52:58 10° NW 16:57:07 89° NE 17:00:10 18° SE
SL-4 R/B 3.8 16:54:43 10° WSW 16:58:59 40° NW 17:03:30 10° NNE
Orbus 7S 3.5 16:58:09 10° WSW 17:00:46 46° S 17:04:26 15° ESE
Cosmos 2297 4.2 16:56:05 10° SSW 17:01:40 63° WNW 17:07:21 10° NNE
STARLINK-1078 3.6 16:57:56 10° NW 17:02:04 82° SW 17:04:56 19° SE
Lacrosse 5 2.1 16:57:51 10° NW 17:02:51 65° SW 17:06:58 15° SSE
STARLINK-1329 4.4 17:01:40 10° S 17:05:01 26° SE 17:08:24 10° ENE
STARLINK-1108 3.7 17:02:55 10° NW 17:07:02 72° SW 17:09:43 21° SSE
Cosmos 2369 Rocket 2.6 17:02:56 10° S 17:08:11 40° ESE 17:13:24 10° NE
Cosmos 1437 Rocket 2.8 17:04:46 10° SSW 17:08:31 75° W 17:12:20 10° N
STARLINK-1362 4.3 17:05:59 10° S 17:09:28 29° SE 17:12:57 10° ENE
ASTRO E2 2.6 17:05:59 10° W 17:09:55 70° SSW 17:12:10 24° ESE
Cosmos 2082 Rocket 2.2 17:04:46 10° NNW 17:10:29 89° WSW 17:15:12 15° SSE
ATLAS 5 CENTAUR R/B 4.4 16:57:59 10° S 17:11:11 30° SE 17:15:49 10° ENE
STARLINK-1071 3.8 17:07:55 10° NW 17:12:00 64° SW 17:14:30 22° SSE
USA 186 3.7 17:10:23 10° SSW 17:12:31 22° W 17:14:47 10° NW
STARLINK-1373 4.1 17:10:20 10° SSW 17:13:55 32° SE 17:17:31 10° ENE
SWIFT 3.9 17:11:41 10° SW 17:14:41 19° S 17:15:31 18° SSE
Okean 1 Rocket 4.2 17:11:19 10° NNE 17:15:05 27° ENE 17:16:26 23° ESE
STARLINK-1110 3.9 17:11:22 10° NW 17:15:26 58° SW 17:17:48 23° SSE
Nadezhda 4 Rocket 4.2 17:10:30 12° SSE 17:16:00 50° E 17:21:51 10° NNE
Meteor 1-12 Rocket 4.3 17:10:27 10° N 17:16:11 86° W 17:21:44 11° S
CZ-2C R/B 4.3 17:11:45 10° N 17:16:14 60° WNW 17:20:48 10° SSW
ATLAS CENTAUR R/B 2.4 17:15:39 23° SE 17:17:01 28° ESE 17:20:43 10° NE
STARLINK-1390 4.0 17:14:42 10° SSW 17:18:24 36° SE 17:22:05 10° ENE
STARLINK-1124 4.2 17:17:57 10° NW 17:21:57 49° SW 17:24:05 24° SSE
STARLINK-1365 3.8 17:19:55 10° SSW 17:23:45 43° SE 17:27:37 10° ENE
Milstar 3 Cent rocket 3.5 17:17:38 10° SW 17:24:00 52° SSE 17:36:52 10° E
ISS -2.0 17:23:29 10° WNW 17:26:16 24° SW 17:27:37 19° SSW
STARLINK-1122 4.4 17:22:58 10° WNW 17:26:54 43° SW 17:28:52 25° S
Okean 2 Rocket 3.9 17:24:25 10° NNW 17:28:39 50° W 17:32:40 11° SSW
Meteor 1-15 Rocket 4.5 17:24:16 10° N 17:30:05 56° E 17:33:09 27° SSE
STARLINK-1320 2.6 17:27:58 10° SW 17:31:03 80° SE 17:34:09 10° NE
STARLINK-1322 2.7 17:28:18 10° SW 17:31:24 81° SE 17:34:31 10° NE
STARLINK-1324 2.7 17:28:37 10° SW 17:31:42 82° SE 17:34:48 10° NE
STARLINK-1294 2.6 17:28:58 10° SW 17:32:01 83° SE 17:35:07 10° NE
STARLINK-1261 2.7 17:29:19 10° SW 17:32:24 84° SE 17:35:31 10° NE
STARLINK-1325 2.7 17:29:40 10° SW 17:32:45 85° SE 17:35:51 10° NE
STARLINK-1333 2.7 17:30:01 10° SW 17:33:08 86° ESE 17:36:14 10° NE
STARLINK-1334 2.7 17:30:19 10° SW 17:33:25 86° SE 17:36:32 10° NE
STARLINK-1326 2.7 17:30:39 10° SW 17:33:44 87° SE 17:36:51 10° NE
Cosmos 2279 Rocket 4.1 17:27:35 10° N 17:33:48 77° W 17:39:09 14° S
STARLINK-1323 2.7 17:31:00 10° SW 17:34:06 88° SSE 17:37:13 10° NE
STARLINK-1349 2.7 17:31:18 10° SW 17:34:24 89° ESE 17:37:30 10° NE
STARLINK-1336 2.7 17:31:39 10° SW 17:34:44 90° SW 17:37:51 10° NE
Resurs 01 Rocket 1.6 17:32:47 31° SSE 17:34:51 73° ENE 17:39:17 10° N
STARLINK-1331 2.7 17:32:01 10° SW 17:35:07 89° NNW 17:38:14 10° NE
STARLINK-1344 2.7 17:32:20 10° SW 17:35:25 88° NW 17:38:32 10° NE
Cosmos 1300 Rocket 4.4 17:31:26 10° NNW 17:35:42 47° W 17:39:17 14° SSW
STARLINK-1343 2.7 17:32:42 10° SW 17:35:47 87° NW 17:38:55 10° NE
STARLINK-1338 3.4 17:31:58 10° SSW 17:35:50 58° SE 17:39:44 10° NE
STARLINK-1346 2.7 17:33:00 10° SW 17:36:05 86° NW 17:39:12 10° NE
Cosmos 1066 Rocket 4.2 17:30:55 10° S 17:36:18 79° W 17:41:39 10° N
H-2A R/B 3.8 17:33:42 10° SW 17:36:29 18° S 17:37:20 18° S
STARLINK-1328 2.8 17:33:24 10° SW 17:36:30 85° NW 17:39:37 10° NE
STARLINK-1354 2.8 17:33:42 10° SW 17:36:48 85° NW 17:39:55 10° NE
STARLINK-1347 2.8 17:34:01 10° SW 17:37:07 84° NW 17:40:14 10° NE
Meteor 1-23 Rocket 4.4 17:31:29 10° SSW 17:37:10 76° W 17:42:49 10° N
STARLINK-1357 2.8 17:34:25 10° SW 17:37:30 83° NW 17:40:37 10° NE
STARLINK-1335 2.8 17:34:42 10° SW 17:37:48 82° NW 17:40:55 10° NE
STARLINK-1327 2.8 17:35:04 10° SW 17:38:09 81° NW 17:41:15 10° NE
STARLINK-1340 2.8 17:35:22 10° SW 17:38:28 80° NW 17:41:35 10° NE
Spot 2 Rocket 4.2 17:37:13 30° ESE 17:38:40 36° ENE 17:43:14 10° N
STARLINK-1356 2.9 17:35:44 10° SW 17:38:49 79° NW 17:41:57 10° NE
STARLINK-1345 2.9 17:36:03 10° SW 17:39:09 78° NW 17:42:16 10° NE
STARLINK-1355 2.9 17:36:24 10° SW 17:39:30 77° NW 17:42:36 10° NE
STARLINK-1321 2.9 17:36:45 10° SW 17:39:50 77° NW 17:42:57 10° NE
STARLINK-1358 2.9 17:37:08 10° SW 17:40:13 76° NW 17:43:20 10° NE
STARLINK-1332 2.9 17:37:25 10° SW 17:40:31 75° NW 17:43:37 10° NE
STARLINK-1348 3.0 17:37:45 10° SW 17:40:51 74° NW 17:43:57 10° NE
STARLINK-1330 3.0 17:38:06 10° SW 17:41:11 73° NW 17:44:17 10° NE
STARLINK-1363 3.0 17:38:25 10° SW 17:41:30 73° NW 17:44:36 10° NE
STARLINK-1337 3.0 17:38:48 10° SW 17:41:53 72° NW 17:44:59 10° NE
STARLINK-1342 3.0 17:39:07 10° SW 17:42:13 71° NW 17:45:19 10° NE
Cosmos 1741 Rocket 4.4 17:37:15 10° NNW 17:42:24 60° WSW 17:45:34 23° S
STARLINK-1364 3.0 17:39:28 10° SW 17:42:33 70° NW 17:45:39 10° NE
STARLINK-1376 3.1 17:39:48 10° SW 17:42:53 69° NW 17:45:58 10° NE
STARLINK-1360 3.1 17:40:08 10° SW 17:43:13 69° NW 17:46:19 10° NE
STARLINK-1361 3.1 17:40:29 10° SW 17:43:34 68° NW 17:46:40 10° NE
STARLINK-1367 3.1 17:40:46 10° SW 17:43:51 67° NW 17:46:57 10° NE
STARLINK-1371 3.3 17:40:06 10° SW 17:44:01 72° SE 17:47:57 10° NE
STARLINK-1130 (DARKSAT) 4.3 17:40:14 10° NNW 17:44:10 42° NE 17:45:09 35° E
STARLINK-1366 3.1 17:41:08 10° SW 17:44:13 66° NW 17:47:19 10° NE
Cosmos 2151 Rocket 4.4 17:40:17 10° NNW 17:44:39 49° W 17:47:43 18° SSW
Terra 4.0 17:44:57 11° ENE 17:45:10 11° ENE 17:46:26 10° NE
VEP-3 3.3 17:40:01 10° SW 17:45:46 31° SSE 17:46:26 31° SSE
Resurs 1-3 4.3 17:44:19 21° SSW 17:46:59 49° W 17:51:14 10° NNW
STARLINK-1341 3.3 17:44:19 10° SW 17:48:14 80° SE 17:52:12 10° NE
STARLINK-1084 4.1 17:45:11 10° NNW 17:49:11 47° NE 17:49:57 41° ENE
Cosmos 1378 3.1 17:48:40 46° SSW 17:49:41 81° W 17:53:23 10° N
Cosmos 1378 Rocket 4.5 17:46:48 10° SSW 17:50:57 46° W 17:55:11 10° N
STARLINK-1374 3.4 17:48:42 10° SW 17:52:40 89° SE 17:56:39 10° NE
BREEZE-M DEB (TANK) 3.8 17:51:29 10° WSW 17:53:45 39° NNW 17:58:30 10° NE
STARLINK-1098 3.9 17:50:06 10° NNW 17:54:09 53° NE 17:54:42 48° ENE
APEX 4.4 17:48:42 10° SSW 17:55:32 88° WNW 18:01:16 10° NNE
NOSS 3-4 (A) 3.2 17:50:07 10° SSW 17:55:59 81° ESE 18:02:04 10° NNE
NOSS 3-4 (C) 3.2 17:50:13 10° SSW 17:56:05 80° ESE 18:02:10 10° NNE
STARLINK-1339 3.5 17:52:58 10° SW 17:56:57 82° NW 18:00:55 10° NE
COSMOS 2455 3.1 17:57:33 42° SE 17:58:26 44° ESE 18:04:07 10° NE
STARLINK-1123 3.7 17:55:03 10° NW 17:59:08 59° NE 17:59:30 57° ENE
STARLINK-1377 3.6 17:57:17 10° SW 18:01:14 74° NW 18:05:12 10° NE
STARLINK-1097 3.6 18:00:01 10° NW 18:04:07 67° NE 18:04:17 66° ENE
Meteor 1-22 Rocket 4.4 17:59:30 10° N 18:05:01 50° E 18:05:51 46° ESE
STARLINK-1353 3.8 18:01:34 10° SW 18:05:30 66° NW 18:09:28 10° NE
Cosmos 1092 Rocket 3.8 18:03:51 34° S 18:06:45 83° E 18:12:54 10° N
ASC 2 Rocket 4.3 18:02:55 10° SW 18:07:07 38° S 18:07:07 38° S
Cosmos 1805 3.3 18:04:11 10° N 18:07:46 68° NE 18:07:46 68° NE
STARLINK-1099 3.6 18:04:57 10° NW 18:09:02 76° NE 18:09:02 76° NE
Cosmos 2263 4.2 18:04:48 16° SSW 18:09:18 79° WNW 18:14:55 10° NNE
SAR-Lupe-2 3.8 18:05:56 10° N 18:09:29 64° WNW 18:09:33 64° W
STARLINK-1375 4.0 18:05:54 10° SW 18:09:49 59° NW 18:13:46 10° NE
SPOT 1/Viking Rocket 3.7 18:09:15 50° E 18:09:52 54° ENE 18:14:52 10° N
STARLINK-1104 3.6 18:09:56 10° NW 18:13:51 79° NNW 18:13:51 79° NNW
STARLINK-1350 4.2 18:10:13 10° WSW 18:14:07 53° NW 18:18:01 10° NNE
Abrixas rocket 4.2 18:13:30 10° WNW 18:14:52 23° WNW 18:14:52 23° WNW
Cosmos 2195 Rocket 4.4 18:14:08 40° S 18:16:37 86° E 18:22:54 10° N
Cosmos 1975 Rocket 3.0 18:16:38 72° SW 18:17:00 80° W 18:21:24 10° N
Cosmos 1943 Rocket 3.9 18:12:12 10° SW 18:17:03 31° WNW 18:21:57 10° N
Cosmos 1842 3.6 18:18:07 60° N 18:18:07 60° N 18:21:21 10° N
Cosmos 1428 Rocket 4.4 18:16:08 51° SSE 18:17:39 67° E 18:23:51 10° NNE
SL-8 R/B 3.7 18:13:38 10° NW 18:18:25 70° NE 18:18:43 68° ENE
STARLINK-1352 4.4 18:14:37 10° WSW 18:18:29 48° NW 18:22:21 10° NNE
Cosmos 292 Rocket 4.2 18:16:27 29° SW 18:18:47 60° WNW 18:23:35 10° N
Cosmos 1733 4.1 18:15:11 10° N 18:17:53 42° NNE 18:17:53 42° NNE
Sakura Rocket 4.5 18:13:07 10° W 18:18:56 48° SSW 18:20:03 45° S
STARLINK-1144 3.7 18:14:54 10° NW 18:18:37 71° NW 18:18:37 71° NW
Cosmos 1992 Rocket 3.8 18:21:55 72° SSE 18:22:24 80° ESE 18:27:36 10° NNE
ATLAS 2AS CENTAUR R/B 3.4 18:15:44 10° SW 18:23:31 66° WNW 18:31:30 10° NNE
STARLINK-1103 4.0 18:19:53 10° NW 18:23:24 61° WNW 18:23:24 61° WNW
Cosmos 1627 Rocket 4.4 18:22:34 45° S 18:24:43 90° WSW 18:31:08 10° N
SL-27 R/B 4.1 18:24:25 10° N 18:26:25 31° N 18:26:25 31° N
STARLINK-1101 4.2 18:24:52 10° NW 18:28:11 52° WNW 18:28:11 52° WNW
Cosmos 1271 Rocket 4.3 18:32:42 28° NNE 18:32:42 28° NNE 18:34:42 10° NNE
NOSS 3-2 (A) 4.1 18:24:50 10° NNW 18:32:51 85° ENE 18:35:28 50° SE
Meteor 2-13 Rocket 4.3 18:32:36 57° S 18:33:58 89° W 18:40:10 10° N
Cosmos 1656 Rocket 3.9 18:34:10 37° SW 18:36:20 67° WNW 18:41:55 10° NNE
Landsat 7 4.1 18:36:59 60° WSW 18:37:05 60° W 18:41:47 10° NNW
ERS-1 Rocket 3.0 18:39:09 73° NE 18:39:09 73° NE 18:43:52 10° N
Cosmos 1242 Rocket 4.3 18:44:29 32° NNW 18:44:29 32° NNW 18:46:43 10° N
Cosmos 2026 Rocket 4.3 18:42:51 43° SW 18:44:50 65° W 18:51:09 10° N
Meteor 1-21 4.4 18:46:33 59° SW 18:47:20 67° W 18:52:55 10° N
USA 238 DEB 3.8 18:40:16 10° NNW 18:47:36 79° WSW 18:49:01 61° S
USA 238 3.8 18:40:22 10° NNW 18:47:43 79° WSW 18:49:07 62° S
Cosmos 2369 Rocket 4.4 18:47:54 10° WSW 18:52:15 22° WNW 18:56:38 10° N
Cosmos 1455 Rocket 4.0 18:49:15 10° N 18:52:19 45° NNW 18:52:19 45° NNW
ATLAS CENTAUR R/B 3.8 18:52:18 10° WSW 18:55:51 23° WNW 18:59:15 10° N
Cosmos 968 Rocket 3.8 18:53:45 10° NNW 18:57:56 59° N 18:57:56 59° N
Cosmos 1553 Rocket 4.0 18:57:40 10° N 19:03:27 69° NE 19:03:27 69° NE
Cosmos 1867 4.2 18:58:57 10° NNW 19:03:31 48° NNE 19:03:31 48° NNE
Cosmos 2266 Rocket 4.3 19:18:40 55° NE 19:18:40 55° NE 19:23:31 10° NNE
SPOT 5 3.9 19:18:40 46° WNW 19:18:40 46° WNW 19:23:08 10° NNW
ATLAS 3B CENTAUR R/B 3.2 19:07:17 10° W 19:21:14 63° SSW 19:21:14 63° SSW
Terra 3.0 19:23:50 40° NW 19:23:50 40° NW 19:27:02 10° NNW
CENTAUR R/B 3.1 19:14:26 10° NNW 19:22:56 83° WSW 19:24:00 72° S
Cosmos 1655 Rocket 4.1 19:24:16 72° NW 19:24:16 72° NW 19:30:11 10° N
ATLAS 3B R/B 3.1 19:24:08 10° NNW 19:30:50 52° ENE 19:30:53 52° ENE
NOSS 3-2 (C) 4.5 19:38:04 10° NW 19:45:50 52° WSW 19:46:03 52° WSW
SeaSat 1 4.2 19:45:53 10° NNE 19:48:02 26° NNE 19:48:02 26° NNE
CZ-4C R/B 4.2 20:01:18 17° NE 20:01:18 17° NE 20:02:40 10° NE
Milstar 3 Cent rocket 4.3 19:53:49 10° W 20:04:04 80° S 20:27:44 10° E
Cosmos 2297 Rocket 4.1 20:05:57 10° N 20:09:25 22° NE 20:09:25 22° NE
Cosmos 1697 Rocket 4.4 20:31:11 25° NE 20:31:11 25° NE 20:33:35 10° NNE
Cosmos 2227 Rocket 3.6 20:42:56 10° N 20:46:35 33° NNE 20:46:35 33° NNE
SJ 16-02 4.0 20:44:24 10° N 20:45:35 16° NNE 20:45:35 16° NNE
Cosmos 1980 Rocket 3.4 21:28:20 37° NNE 21:28:20 37° NNE 21:31:40 10° NNE
CZ-4C R/B 4.2 21:46:27 17° NW 21:46:28 17° NW 21:49:59 10° N
Cosmos 2297 Rocket 4.1 21:49:13 10° NW 21:51:11 21° NW 21:51:11 21° NW
Lacrosse 4 Rocket 4.3 21:54:25 10° NNW 21:54:47 12° NNW 21:54:47 12° NNW
Cosmos 2322 Rocket 3.5 22:06:05 32° ENE 22:06:05 32° ENE 22:09:50 10° NE
Cosmos 2181 Rocket 4.2 22:07:36 10° N 22:13:12 69° N 22:13:12 69° N
Resurs 1-4 Rocket 2.8 22:18:41 10° NNE 22:22:45 52° NE 22:22:45 52° NE
SL-16 R/B 3.0 22:25:17 50° E 22:26:01 53° ENE 22:31:59 10° N
BREEZE-M DEB (TANK) 3.8 22:27:18 50° NNE 22:27:18 50° NNE 22:34:36 10° NE
Meteor 1-27 4.5 22:31:39 10° N 22:36:44 64° NE 22:36:44 64° NE
SL-16 R/B 2.4 22:40:52 66° N 22:40:52 66° N 22:45:45 10° NNE
USA 215 3.1 22:40:50 72° SE 22:41:37 89° WSW 22:48:11 10° NW
Nadezhda 3 Rocket 4.4 22:47:24 10° N 22:53:40 59° E 22:55:16 46° SE
CZ-2D R/B 2.6 22:49:28 10° N 22:53:42 51° NW 22:53:42 51° NW
Cosmos 2360 Rocket 2.3 23:02:11 61° ESE 23:02:23 62° ESE 23:07:55 10° NNE
Cosmos 2221 3.4 22:59:25 10° N 23:02:39 48° N 23:02:39 48° N
Cosmos 1295 Rocket 4.4 23:03:29 71° S 23:04:14 86° E 23:10:33 10° N
IRIDIUM 103 4.4 23:04:57 71° E 23:05:02 71° E 23:10:14 10° N
CBERS-1 4.0 23:00:58 10° NNE 23:05:54 81° NE 23:05:54 81° NE
Cosmos 1980 Rocket 4.5 23:10:05 11° WNW 23:10:39 11° NW 23:12:11 10° NW
Cosmos 1315 Rocket 4.2 23:07:46 10° N 23:10:04 34° N 23:10:04 34° N
Cosmos 2058 3.8 23:14:36 44° NNW 23:14:36 44° NNW 23:17:35 10° N
STARLINK-1021 4.4 23:14:58 49° NNE 23:14:58 49° NNE 23:18:04 10° NE
FALCON 9 R/B 3.9 23:08:52 23° W 23:14:09 75° SSW 23:42:58 10° ESE
BREEZE M DEB (TANK) 3.9 23:13:32 26° NNW 23:15:25 61° NE 23:24:53 10° SE
STARLINK-1010 4.3 23:16:19 53° NNE 23:16:19 53° NNE 23:19:40 10° NE
Cosmos 2333 Rocket 3.8 23:13:33 21° SE 23:15:36 26° ESE 23:20:11 10° NE
STARLINK-1019 4.3 23:19:42 52° NNE 23:19:42 52° NNE 23:23:00 10° NE
Cosmos 2219 Rocket 3.8 23:18:05 20° SE 23:20:17 26° ESE 23:24:51 10° NE
Cosmos 2322 4.5 23:19:36 37° SE 23:21:04 45° ESE 23:26:29 10° NE
IRIDIUM 106 4.2 23:23:12 75° W 23:23:19 75° W 23:28:32 10° N
STARLINK-1012 4.2 23:24:30 53° N 23:24:30 53° N 23:27:58 10° NE
Cosmos 2341 Rocket 3.9 23:22:46 53° S 23:24:25 88° E 23:30:47 10° N
CZ-4B R/B 4.2 23:19:49 10° N 23:24:38 41° WNW 23:24:38 41° WNW
BREEZE-M TANK 4.3 23:30:41 22° SE 23:30:41 22° SE 23:32:36 10° E
CZ-3A R/B 4.5 23:29:35 10° SE 23:30:05 10° SE 23:30:37 10° ESE
ATLAS 5 CENTAUR R/B 3.9 23:30:01 11° SE 23:31:08 12° ESE 23:32:34 10° E
ADEOS II 2.0 23:27:52 10° N 23:33:06 69° WNW 23:33:43 62° WSW
STARLINK-1026 4.2 23:34:03 48° NNW 23:34:03 48° NNW 23:37:51 10° NNE
Cosmos 2263 Rocket 2.2 23:29:08 10° NNW 23:34:22 53° W 23:34:22 53° W
USA 229 DEB 3.9 23:27:27 10° NNW 23:34:56 90° WSW 23:42:39 10° SSE
USA 229 3.9 23:27:33 10° NNW 23:35:02 90° ENE 23:42:46 10° SSE
NOSS 3-1 (C) 4.1 23:28:00 10° NNW 23:36:05 81° WSW 23:45:01 10° SSE
IRS-1D 3.9 23:31:45 10° N 23:36:44 46° WNW 23:37:02 46° W
IDEFIX/ARIANE 42P 3.8 23:32:06 10° NNE 23:36:53 35° E 23:39:50 20° SSE
STARLINK-1013 4.3 23:38:51 43° NW 23:38:51 43° NW 23:42:48 10° NNE
Delta 2 Rocket 4.1 23:41:55 46° SSW 23:42:48 50° S 23:48:34 10° E
ERS-2 4.1 23:40:27 13° SE 23:43:05 28° ENE 23:46:16 10° NNE
ARIANE 5 R/B 2.4 23:38:26 10° NNE 23:43:27 87° E 23:44:42 52° S
STARLINK-1009 4.4 23:43:37 39° NW 23:43:48 39° NW 23:47:43 10° NNE
NOSS 3-1 (A) 4.3 23:36:10 10° NNW 23:44:13 77° ENE 23:53:09 10° SSE
SL-4 R/B 3.5 23:39:49 10° NNW 23:44:20 42° NE 23:48:37 10° ESE
SL-8 Rocket 3.9 23:42:11 40° S 23:44:40 87° W 23:50:58 10° N
IRS-1C 4.2 23:43:21 10° N 23:48:35 60° WNW 23:49:49 47° SW
Cosmos 2218 Rocket 4.0 23:45:39 33° S 23:48:47 84° E 23:55:12 10° N
Cosmos 2322 Rocket 3.5 23:47:54 23° WNW 23:48:47 24° WNW 23:53:15 10° N
